Wheeling, WV

3:19 PM EDT on September 22, 2019 (GMT -0400)
Wheeling-Ohio County

Weather History for KHLG - August, 2019

Change the Weather History Date:

Wednesday, August 21, 2019

  Actual Average Record
Temperature  
Mean Temperature 75 °F 71 °F  
Max Temperature 81 °F 81 °F 101 °F (1936)
Min Temperature 69 °F 61 °F 40 °F (1922)
Degree Days  
Heating Degree Days 0 0  
Month to date heating degree days 0 0  
Since 1 June heating degree days 29 41  
Since 1 July heating degree days 0 3  
Cooling Degree Days 10    
Month to date cooling degree days 181  
Year to date cooling degree days 744  
Since 1 June cooling degree days 638  
Growing Degree Days 25 (Base 50)    
Moisture  
Dew Point 67 °F    
Average Humidity 80    
Maximum Humidity 97    
Minimum Humidity 62    
Precipitation  
Precipitation 0.00 in 0.12 in 1.83 in (1912)
Month to date precipitation 1.36 2.23  
Year to date precipitation 24.86 26.25  
Sea Level Pressure  
Sea Level Pressure 29.97 in    
Wind  
Wind Speed 7 mph (SW)    
Max Wind Speed 15 mph    
Max Gust Speed 20 mph    
Visibility 10 miles    
Events      
T = Trace of Precipitation, MM = Missing Value Source: NWS Daily Summary

Daily Weather History Graph

Daily Weather History Graph

Search for Another Location

Airport or City:

Astronomy

Aug. 21, 2019 Rise Set
Actual Time 6:39 AM EDT 8:11 PM EDT
Civil Twilight 6:10 AM EDT 8:39 PM EDT
Nautical Twilight 5:36 AM EDT 9:14 PM EDT
Astronomical Twilight 4:59 AM EDT 9:50 PM EDT
Moon 11:27 PM EDT (8/21) 12:14 PM EDT (8/21)
Length of Visible Light 14h 29m
Length of Day
13h 31m
Waning Gibbous, 69% of the Moon is Illuminated
Aug 21
Waning Gibbous
Aug 23
Last Quarter
Aug 30
New
Sep 5
First Quarter
Sep 14
Full

Hourly Weather History & Observations

Time (EDT) Temp. Heat Index Dew Point Humidity Pressure Visibility Wind Dir Wind Speed Gust Speed Precip Events Conditions
12:53 AM 70.0 °F - 68.0 °F 93% 30.00 in 10.0 mi SSE 9.2 mph - N/A   Mostly Cloudy
1:53 AM 70.0 °F - 68.0 °F 93% 29.98 in 10.0 mi SSE 6.9 mph - N/A   Clear
2:53 AM 70.0 °F - 66.9 °F 90% 29.96 in 10.0 mi SSW 4.6 mph - N/A   Mostly Cloudy
3:53 AM 70.0 °F - 66.9 °F 90% 29.96 in 10.0 mi SSW 5.8 mph - N/A   Mostly Cloudy
4:53 AM 70.0 °F - 66.9 °F 90% 29.94 in 10.0 mi SSW 4.6 mph - N/A   Clear
5:53 AM 69.1 °F - 66.9 °F 93% 29.95 in 10.0 mi WSW 4.6 mph - N/A   Scattered Clouds
6:13 AM 69.1 °F - 66.9 °F 93% 29.98 in 10.0 mi SW 5.8 mph - N/A   Partly Cloudy
6:53 AM 69.1 °F - 66.9 °F 93% 29.96 in 8.0 mi SW 5.8 mph - N/A   Partly Cloudy
7:53 AM 69.1 °F - 66.9 °F 93% 29.97 in 10.0 mi SW 5.8 mph - N/A   Mostly Cloudy
8:53 AM 72.0 °F - 68.0 °F 87% 29.96 in 10.0 mi SW 3.5 mph - N/A   Clear
9:34 AM 73.0 °F - 68.0 °F 84% 29.99 in 10.0 mi WSW 6.9 mph - N/A   Mostly Cloudy
9:41 AM 73.0 °F - 66.9 °F 81% 29.99 in 10.0 mi SW 6.9 mph - N/A   Scattered Clouds
9:53 AM 75.0 °F - 68.0 °F 79% 29.97 in 10.0 mi SW 8.1 mph - N/A   Mostly Cloudy
10:08 AM 75.0 °F - 68.0 °F 79% 29.99 in 10.0 mi WSW 5.8 mph - N/A   Mostly Cloudy
10:53 AM 77.0 °F - 68.0 °F 74% 29.97 in 10.0 mi SSW 10.4 mph - N/A   Mostly Cloudy
11:20 AM 77.0 °F - 68.0 °F 74% 29.99 in 10.0 mi SSW 9.2 mph - N/A   Mostly Cloudy
11:53 AM 78.1 °F - 66.9 °F 68% 29.99 in 10.0 mi SW 10.4 mph - N/A   Scattered Clouds
12:53 PM 75.9 °F - 66.9 °F 74% 29.98 in 10.0 mi WSW 8.1 mph - N/A   Overcast
1:14 PM 75.9 °F - 66.9 °F 74% 29.99 in 10.0 mi West 8.1 mph - N/A   Overcast
1:42 PM 77.0 °F - 66.9 °F 71% 29.99 in 10.0 mi West 9.2 mph - N/A   Overcast
1:53 PM 77.0 °F - 68.0 °F 74% 29.97 in 10.0 mi West 10.4 mph - N/A   Overcast
2:53 PM 78.1 °F - 66.9 °F 68% 29.97 in 10.0 mi WNW 12.7 mph - N/A   Mostly Cloudy
3:53 PM 80.1 °F 82.7 °F 68.0 °F 67% 29.95 in 10.0 mi West 9.2 mph - N/A   Mostly Cloudy
4:53 PM 80.1 °F 82.7 °F 68.0 °F 67% 29.94 in 10.0 mi WSW 9.2 mph - N/A   Partly Cloudy
5:53 PM 81.0 °F 83.3 °F 66.9 °F 62% 29.94 in 10.0 mi West 8.1 mph - N/A   Partly Cloudy
6:53 PM 79.0 °F - 66.9 °F 66% 29.94 in 10.0 mi Variable 6.9 mph - N/A   Clear
7:53 PM 77.0 °F - 66.9 °F 71% 29.94 in 10.0 mi West 6.9 mph - N/A   Partly Cloudy
8:53 PM 75.0 °F - 66.9 °F 76% 29.95 in 10.0 mi West 8.1 mph - N/A   Clear
9:53 PM 73.0 °F - 66.9 °F 81% 29.97 in 10.0 mi WSW 5.8 mph - N/A   Clear
10:53 PM 72.0 °F - 66.9 °F 84% 29.96 in 10.0 mi SSW 5.8 mph - N/A   Clear
11:53 PM 71.1 °F - 66.9 °F 87% 29.96 in 10.0 mi SSW 4.6 mph - N/A   Clear